owner,sensor,date,latitude,longitude,sea_water_turbidity,qcFlag 
SCCF RECON,ioos:station:SCCF:11:1,2016-06-01T00:00:00Z,26.4679,-82.0631,2.82,1111122 
SCCF RECON,ioos:station:SCCF:11:1,2016-06-01T01:00:00Z,26.4679,-82.0631,2.92,1111122 
SCCF RECON,ioos:station:SCCF:11:1,2016-06-01T02:00:00Z,26.4679,-82.0631,2.49,1111122 
SCCF RECON,ioos:station:SCCF:11:1,2016-06-01T03:00:00Z,26.4679,-82.0631,2.55,1111122 
SCCF RECON,ioos:station:SCCF:11:1,2016-06-01T04:00:00Z,26.4679,-82.0631,2.03,1111122 
SCCF RECON,ioos:station:SCCF:11:1,2016-06-01T05:00:00Z,26.4679,-82.0631,2.47,1111122 
SCCF RECON,ioos:station:SCCF:11:1,2016-06-01T06:00:00Z,26.4679,-82.0631,2.05,1111122 
SCCF RECON,ioos:station:SCCF:11:1,2016-06-01T07:00:00Z,26.4679,-82.0631,2.65,1111122 
SCCF RECON,ioos:station:SCCF:11:1,2016-06-01T08:00:00Z,26.4679,-82.0631,2.69,1111122 
SCCF RECON,ioos:station:SCCF:11:1,2016-06-01T09:00:00Z,26.4679,-82.0631,3.65,1111122 
SCCF RECON,ioos:station:SCCF:11:1,2016-06-01T10:00:00Z,26.4679,-82.0631,2.63,1111122 
SCCF RECON,ioos:station:SCCF:11:1,2016-06-01T11:00:00Z,26.4679,-82.0631,1.98,1111122 
SCCF RECON,ioos:station:SCCF:11:1,2016-06-01T12:00:00Z,26.4679,-82.0631,2.06,1111122 
SCCF RECON,ioos:station:SCCF:11:1,2016-06-01T13:00:00Z,26.4679,-82.0631,2.29,1111122 
SCCF RECON,ioos:station:SCCF:11:1,2016-06-01T14:00:00Z,26.4679,-82.0631,2.09,1111122 
SCCF RECON,ioos:station:SCCF:11:1,2016-06-01T15:00:00Z,26.4679,-82.0631,1.97,1111122 
SCCF RECON,ioos:station:SCCF:11:1,2016-06-01T16:00:00Z,26.4679,-82.0631,2.07,1111122 
SCCF RECON,ioos:station:SCCF:11:1,2016-06-01T17:00:00Z,26.4679,-82.0631,2.22,1111122 
SCCF RECON,ioos:station:SCCF:11:1,2016-06-01T18:00:00Z,26.4679,-82.0631,3.77,1111122 
SCCF RECON,ioos:station:SCCF:11:1,2016-06-01T19:00:00Z,26.4679,-82.0631,4.21,1111122 
SCCF RECON,ioos:station:SCCF:11:1,2016-06-01T20:00:00Z,26.4679,-82.0631,4.74,1111122 
SCCF RECON,ioos:station:SCCF:11:1,2016-06-01T21:00:00Z,26.4679,-82.0631,4.92,1111122 
SCCF RECON,ioos:station:SCCF:11:1,2016-06-01T22:00:00Z,26.4679,-82.0631,3.72,1111122 
SCCF RECON,ioos:station:SCCF:11:1,2016-06-01T23:00:00Z,26.4679,-82.0631,4.36,1111122 
SCCF RECON,ioos:station:SCCF:11:1,2016-06-02T00:00:00Z,26.4679,-82.0631,5.64,1111122 
SCCF RECON,ioos:station:SCCF:11:1,2016-06-02T01:00:00Z,26.4679,-82.0631,5.75,1111122 
SCCF RECON,ioos:station:SCCF:11:1,2016-06-02T02:00:00Z,26.4679,-82.0631,2.94,1111122 
SCCF RECON,ioos:station:SCCF:11:1,2016-06-02T03:00:00Z,26.4679,-82.0631,3.2,1111122 
SCCF RECON,ioos:station:SCCF:11:1,2016-06-02T04:00:00Z,26.4679,-82.0631,3.4,1111122 
SCCF RECON,ioos:station:SCCF:11:1,2016-06-02T05:00:00Z,26.4679,-82.0631,3.03,1111122 
SCCF RECON,ioos:station:SCCF:11:1,2016-06-02T06:00:00Z,26.4679,-82.0631,2.6,1111122 
SCCF RECON,ioos:station:SCCF:11:1,2016-06-02T07:00:00Z,26.4679,-82.0631,2.75,1111122 
SCCF RECON,ioos:station:SCCF:11:1,2016-06-02T08:00:00Z,26.4679,-82.0631,2.98,1111122 
SCCF RECON,ioos:station:SCCF:11:1,2016-06-02T09:00:00Z,26.4679,-82.0631,3.43,1111122 
SCCF RECON,ioos:station:SCCF:11:1,2016-06-02T10:00:00Z,26.4679,-82.0631,3.42,1111122 
SCCF RECON,ioos:station:SCCF:11:1,2016-06-02T11:00:00Z,26.4679,-82.0631,3.04,1111122 
SCCF RECON,ioos:station:SCCF:11:1,2016-06-02T12:00:00Z,26.4679,-82.0631,2.37,1111122 
SCCF RECON,ioos:station:SCCF:11:1,2016-06-02T13:00:00Z,26.4679,-82.0631,2.51,1111122 
SCCF RECON,ioos:station:SCCF:11:1,2016-06-02T14:00:00Z,26.4679,-82.0631,2.29,1111122 
SCCF RECON,ioos:station:SCCF:11:1,2016-06-02T15:00:00Z,26.4679,-82.0631,1.92,1111122 
SCCF RECON,ioos:station:SCCF:11:1,2016-06-02T16:00:00Z,26.4679,-82.0631,1.87,1111122 
SCCF RECON,ioos:station:SCCF:11:1,2016-06-02T17:00:00Z,26.4679,-82.0631,1.92,1111122 
SCCF RECON,ioos:station:SCCF:11:1,2016-06-02T18:00:00Z,26.4679,-82.0631,3.2,1111122 
SCCF RECON,ioos:station:SCCF:11:1,2016-06-02T19:00:00Z,26.4679,-82.0631,3.85,1111122 
SCCF RECON,ioos:station:SCCF:11:1,2016-06-02T20:00:00Z,26.4679,-82.0631,4.54,1111122 
SCCF RECON,ioos:station:SCCF:11:1,2016-06-02T21:00:00Z,26.4679,-82.0631,4.76,1111122 
SCCF RECON,ioos:station:SCCF:11:1,2016-06-02T22:00:00Z,26.4679,-82.0631,4.86,1111122 
SCCF RECON,ioos:station:SCCF:11:1,2016-06-02T23:00:00Z,26.4679,-82.0631,3.45,1111122 
SCCF RECON,ioos:station:SCCF:11:1,2016-06-03T00:00:00Z,26.4679,-82.0631,4.89,1111122 
SCCF RECON,ioos:station:SCCF:11:1,2016-06-03T01:00:00Z,26.4679,-82.0631,4.65,1111122 
SCCF RECON,ioos:station:SCCF:11:1,2016-06-03T02:00:00Z,26.4679,-82.0631,3.44,1111122 
SCCF RECON,ioos:station:SCCF:11:1,2016-06-03T03:00:00Z,26.4679,-82.0631,3.34,1111122 
SCCF RECON,ioos:station:SCCF:11:1,2016-06-03T04:00:00Z,26.4679,-82.0631,3.06,1111122 
SCCF RECON,ioos:station:SCCF:11:1,2016-06-03T05:00:00Z,26.4679,-82.0631,3.22,1111122 
SCCF RECON,ioos:station:SCCF:11:1,2016-06-03T06:00:00Z,26.4679,-82.0631,5.17,1111122 
SCCF RECON,ioos:station:SCCF:11:1,2016-06-03T07:00:00Z,26.4679,-82.0631,2.48,1111122 
SCCF RECON,ioos:station:SCCF:11:1,2016-06-03T08:00:00Z,26.4679,-82.0631,2.72,1111122 
SCCF RECON,ioos:station:SCCF:11:1,2016-06-03T09:00:00Z,26.4679,-82.0631,2.99,1111122 
SCCF RECON,ioos:station:SCCF:11:1,2016-06-03T10:00:00Z,26.4679,-82.0631,2.96,1111122 
SCCF RECON,ioos:station:SCCF:11:1,2016-06-03T11:00:00Z,26.4679,-82.0631,3.06,1111122 
SCCF RECON,ioos:station:SCCF:11:1,2016-06-03T12:00:00Z,26.4679,-82.0631,2.09,1111122 
SCCF RECON,ioos:station:SCCF:11:1,2016-06-03T13:00:00Z,26.4679,-82.0631,2.24,1111122 
SCCF RECON,ioos:station:SCCF:11:1,2016-06-03T14:00:00Z,26.4679,-82.0631,2.41,1111122 
SCCF RECON,ioos:station:SCCF:11:1,2016-06-03T15:00:00Z,26.4679,-82.0631,2.47,1111122 
SCCF RECON,ioos:station:SCCF:11:1,2016-06-03T16:00:00Z,26.4679,-82.0631,1.87,1111122 
SCCF RECON,ioos:station:SCCF:11:1,2016-06-03T17:00:00Z,26.4679,-82.0631,1.92,1111122 
SCCF RECON,ioos:station:SCCF:11:1,2016-06-03T18:00:00Z,26.4679,-82.0631,3.22,1111122 
SCCF RECON,ioos:station:SCCF:11:1,2016-06-03T19:00:00Z,26.4679,-82.0631,4.14,1111122 
SCCF RECON,ioos:station:SCCF:11:1,2016-06-03T20:00:00Z,26.4679,-82.0631,4.75,1111122 
SCCF RECON,ioos:station:SCCF:11:1,2016-06-03T21:00:00Z,26.4679,-82.0631,4.93,1111122 
SCCF RECON,ioos:station:SCCF:11:1,2016-06-03T22:00:00Z,26.4679,-82.0631,5.24,1111122 
SCCF RECON,ioos:station:SCCF:11:1,2016-06-03T23:00:00Z,26.4679,-82.0631,5.45,1111122 
SCCF RECON,ioos:station:SCCF:11:1,2016-06-04T00:00:00Z,26.4679,-82.0631,8.8,1111122 
SCCF RECON,ioos:station:SCCF:11:1,2016-06-04T01:00:00Z,26.4679,-82.0631,5.19,1111122 
SCCF RECON,ioos:station:SCCF:11:1,2016-06-04T02:00:00Z,26.4679,-82.0631,6.87,1111122 
SCCF RECON,ioos:station:SCCF:11:1,2016-06-04T03:00:00Z,26.4679,-82.0631,4.7,1111122 
SCCF RECON,ioos:station:SCCF:11:1,2016-06-04T04:00:00Z,26.4679,-82.0631,3.66,1111122 
SCCF RECON,ioos:station:SCCF:11:1,2016-06-04T05:00:00Z,26.4679,-82.0631,3.1,1111122 
SCCF RECON,ioos:station:SCCF:11:1,2016-06-04T06:00:00Z,26.4679,-82.0631,3.88,1111122 
SCCF RECON,ioos:station:SCCF:11:1,2016-06-04T07:00:00Z,26.4679,-82.0631,2.96,1111122 
SCCF RECON,ioos:station:SCCF:11:1,2016-06-04T08:00:00Z,26.4679,-82.0631,2.64,1111122 
SCCF RECON,ioos:station:SCCF:11:1,2016-06-04T09:00:00Z,26.4679,-82.0631,2.89,1111122 
SCCF RECON,ioos:station:SCCF:11:1,2016-06-04T10:00:00Z,26.4679,-82.0631,3.53,1111122 
SCCF RECON,ioos:station:SCCF:11:1,2016-06-04T11:00:00Z,26.4679,-82.0631,2.99,1111122 
SCCF RECON,ioos:station:SCCF:11:1,2016-06-04T12:00:00Z,26.4679,-82.0631,2.84,1111122 
SCCF RECON,ioos:station:SCCF:11:1,2016-06-04T13:00:00Z,26.4679,-82.0631,3.76,1111122 
SCCF RECON,ioos:station:SCCF:11:1,2016-06-04T14:00:00Z,26.4679,-82.0631,4.81,1111122 
SCCF RECON,ioos:station:SCCF:11:1,2016-06-04T15:00:00Z,26.4679,-82.0631,3.11,1111122 
SCCF RECON,ioos:station:SCCF:11:1,2016-06-04T16:00:00Z,26.4679,-82.0631,3.52,1111122 
SCCF RECON,ioos:station:SCCF:11:1,2016-06-04T17:00:00Z,26.4679,-82.0631,3.94,1111122 
SCCF RECON,ioos:station:SCCF:11:1,2016-06-04T18:00:00Z,26.4679,-82.0631,2.93,1111122 
SCCF RECON,ioos:station:SCCF:11:1,2016-06-04T19:00:00Z,26.4679,-82.0631,3.33,1111122 
SCCF RECON,ioos:station:SCCF:11:1,2016-06-04T20:00:00Z,26.4679,-82.0631,4.12,1111122 
SCCF RECON,ioos:station:SCCF:11:1,2016-06-04T21:00:00Z,26.4679,-82.0631,4.7,1111122 
SCCF RECON,ioos:station:SCCF:11:1,2016-06-04T22:00:00Z,26.4679,-82.0631,5.36,1111122 
SCCF RECON,ioos:station:SCCF:11:1,2016-06-04T23:00:00Z,26.4679,-82.0631,6.67,1111122 
SCCF RECON,ioos:station:SCCF:11:1,2016-06-05T00:00:00Z,26.4679,-82.0631,6.88,1111122 
SCCF RECON,ioos:station:SCCF:11:1,2016-06-05T01:00:00Z,26.4679,-82.0631,6.1,1111122 
SCCF RECON,ioos:station:SCCF:11:1,2016-06-05T02:00:00Z,26.4679,-82.0631,6.5,1111122 
SCCF RECON,ioos:station:SCCF:11:1,2016-06-05T03:00:00Z,26.4679,-82.0631,5.11,1111122 
SCCF RECON,ioos:station:SCCF:11:1,2016-06-05T04:00:00Z,26.4679,-82.0631,4.33,1111122 
SCCF RECON,ioos:station:SCCF:11:1,2016-06-05T05:00:00Z,26.4679,-82.0631,3.91,1111122 
SCCF RECON,ioos:station:SCCF:11:1,2016-06-05T06:00:00Z,26.4679,-82.0631,4.94,1111122 
SCCF RECON,ioos:station:SCCF:11:1,2016-06-05T07:00:00Z,26.4679,-82.0631,4.07,1111122 
SCCF RECON,ioos:station:SCCF:11:1,2016-06-05T08:00:00Z,26.4679,-82.0631,3.88,1111122 
SCCF RECON,ioos:station:SCCF:11:1,2016-06-05T09:00:00Z,26.4679,-82.0631,2.82,1111122 
SCCF RECON,ioos:station:SCCF:11:1,2016-06-05T10:00:00Z,26.4679,-82.0631,3.29,1111122 
SCCF RECON,ioos:station:SCCF:11:1,2016-06-05T11:00:00Z,26.4679,-82.0631,3.12,1111122 
SCCF RECON,ioos:station:SCCF:11:1,2016-06-05T12:00:00Z,26.4679,-82.0631,2.88,1111122 
SCCF RECON,ioos:station:SCCF:11:1,2016-06-05T13:00:00Z,26.4679,-82.0631,3.07,1111122 
SCCF RECON,ioos:station:SCCF:11:1,2016-06-05T14:00:00Z,26.4679,-82.0631,3.18,1111122 
SCCF RECON,ioos:station:SCCF:11:1,2016-06-05T15:00:00Z,26.4679,-82.0631,3.35,1111122 
SCCF RECON,ioos:station:SCCF:11:1,2016-06-05T16:00:00Z,26.4679,-82.0631,3.22,1111122 
SCCF RECON,ioos:station:SCCF:11:1,2016-06-05T17:00:00Z,26.4679,-82.0631,3.79,1111122 
SCCF RECON,ioos:station:SCCF:11:1,2016-06-05T18:00:00Z,26.4679,-82.0631,3.45,1111122 
SCCF RECON,ioos:station:SCCF:11:1,2016-06-05T19:00:00Z,26.4679,-82.0631,3.37,1111122 
SCCF RECON,ioos:station:SCCF:11:1,2016-06-05T20:00:00Z,26.4679,-82.0631,4.29,1111122 
SCCF RECON,ioos:station:SCCF:11:1,2016-06-05T21:00:00Z,26.4679,-82.0631,4.05,1111122 
SCCF RECON,ioos:station:SCCF:11:1,2016-06-05T22:00:00Z,26.4679,-82.0631,4.26,1111122 
SCCF RECON,ioos:station:SCCF:11:1,2016-06-05T23:00:00Z,26.4679,-82.0631,4.82,1111122 
SCCF RECON,ioos:station:SCCF:11:1,2016-06-06T00:00:00Z,26.4679,-82.0631,5.12,1111122 
SCCF RECON,ioos:station:SCCF:11:1,2016-06-06T01:00:00Z,26.4679,-82.0631,5.28,1111122 
SCCF RECON,ioos:station:SCCF:11:1,2016-06-06T02:00:00Z,26.4679,-82.0631,4.68,1111122 
SCCF RECON,ioos:station:SCCF:11:1,2016-06-06T03:00:00Z,26.4679,-82.0631,7.1,1111122 
SCCF RECON,ioos:station:SCCF:11:1,2016-06-06T04:00:00Z,26.4679,-82.0631,5.18,1111122 
SCCF RECON,ioos:station:SCCF:11:1,2016-06-06T05:00:00Z,26.4679,-82.0631,5.42,1111122 
SCCF RECON,ioos:station:SCCF:11:1,2016-06-06T06:00:00Z,26.4679,-82.0631,13.43,1111122 
SCCF RECON,ioos:station:SCCF:11:1,2016-06-06T07:00:00Z,26.4679,-82.0631,9.79,1111122 
SCCF RECON,ioos:station:SCCF:11:1,2016-06-06T08:00:00Z,26.4679,-82.0631,11.3,1111122 
SCCF RECON,ioos:station:SCCF:11:1,2016-06-06T09:00:00Z,26.4679,-82.0631,4.2,1111122 
SCCF RECON,ioos:station:SCCF:11:1,2016-06-06T10:00:00Z,26.4679,-82.0631,6.41,1111122 
SCCF RECON,ioos:station:SCCF:11:1,2016-06-06T11:00:00Z,26.4679,-82.0631,8.42,1111122 
SCCF RECON,ioos:station:SCCF:11:1,2016-06-06T12:00:00Z,26.4679,-82.0631,8.11,1111122 
SCCF RECON,ioos:station:SCCF:11:1,2016-06-06T13:00:00Z,26.4679,-82.0631,4.95,1111122 
SCCF RECON,ioos:station:SCCF:11:1,2016-06-06T14:00:00Z,26.4679,-82.0631,8.01,1111122 
SCCF RECON,ioos:station:SCCF:11:1,2016-06-06T15:00:00Z,26.4679,-82.0631,9.56,1111122 
SCCF RECON,ioos:station:SCCF:11:1,2016-06-06T16:00:00Z,26.4679,-82.0631,9.24,1111122 
SCCF RECON,ioos:station:SCCF:11:1,2016-06-06T17:00:00Z,26.4679,-82.0631,15.71,1111122 
SCCF RECON,ioos:station:SCCF:11:1,2016-06-06T18:00:00Z,26.4679,-82.0631,22.89,1111122 
SCCF RECON,ioos:station:SCCF:11:1,2016-06-06T19:00:00Z,26.4679,-82.0631,31.26,1111122 
SCCF RECON,ioos:station:SCCF:11:1,2016-06-06T20:00:00Z,26.4679,-82.0631,23.83,1111122 
SCCF RECON,ioos:station:SCCF:11:1,2016-06-06T21:00:00Z,26.4679,-82.0631,22.97,1111122 
SCCF RECON,ioos:station:SCCF:11:1,2016-06-06T22:00:00Z,26.4679,-82.0631,9.67,1111122 
SCCF RECON,ioos:station:SCCF:11:1,2016-06-06T23:00:00Z,26.4679,-82.0631,16.14,1111122 
SCCF RECON,ioos:station:SCCF:11:1,2016-06-07T00:00:00Z,26.4679,-82.0631,8.83,1111122 
SCCF RECON,ioos:station:SCCF:11:1,2016-06-07T01:00:00Z,26.4679,-82.0631,8.34,1111122 
SCCF RECON,ioos:station:SCCF:11:1,2016-06-07T02:00:00Z,26.4679,-82.0631,7.9,1111122 
SCCF RECON,ioos:station:SCCF:11:1,2016-06-07T03:00:00Z,26.4679,-82.0631,7.04,1111122 
SCCF RECON,ioos:station:SCCF:11:1,2016-06-07T04:00:00Z,26.4679,-82.0631,24.33,1111122 
SCCF RECON,ioos:station:SCCF:11:1,2016-06-07T05:00:00Z,26.4679,-82.0631,23.33,1111122 
SCCF RECON,ioos:station:SCCF:11:1,2016-06-07T06:00:00Z,26.4679,-82.0631,15.66,1111122 
SCCF RECON,ioos:station:SCCF:11:1,2016-06-07T07:00:00Z,26.4679,-82.0631,15.91,1111122 
SCCF RECON,ioos:station:SCCF:11:1,2016-06-07T08:00:00Z,26.4679,-82.0631,37.2,1111122 
SCCF RECON,ioos:station:SCCF:11:1,2016-06-07T09:00:00Z,26.4679,-82.0631,21.0,1111122 
SCCF RECON,ioos:station:SCCF:11:1,2016-06-07T10:00:00Z,26.4679,-82.0631,22.37,1111122 
SCCF RECON,ioos:station:SCCF:11:1,2016-06-07T11:00:00Z,26.4679,-82.0631,13.57,1111122 
SCCF RECON,ioos:station:SCCF:11:1,2016-06-07T12:00:00Z,26.4679,-82.0631,14.86,1111122 
SCCF RECON,ioos:station:SCCF:11:1,2016-06-07T13:00:00Z,26.4679,-82.0631,10.45,1111122 
SCCF RECON,ioos:station:SCCF:11:1,2016-06-07T14:00:00Z,26.4679,-82.0631,10.44,1111122 
SCCF RECON,ioos:station:SCCF:11:1,2016-06-07T15:00:00Z,26.4679,-82.0631,10.77,1111122 
SCCF RECON,ioos:station:SCCF:11:1,2016-06-07T16:00:00Z,26.4679,-82.0631,25.9,1111122 
SCCF RECON,ioos:station:SCCF:11:1,2016-06-07T17:00:00Z,26.4679,-82.0631,14.99,1111122 
SCCF RECON,ioos:station:SCCF:11:1,2016-06-07T18:00:00Z,26.4679,-82.0631,15.99,1111122 
SCCF RECON,ioos:station:SCCF:11:1,2016-06-07T19:00:00Z,26.4679,-82.0631,12.02,1111122 
SCCF RECON,ioos:station:SCCF:11:1,2016-06-07T20:00:00Z,26.4679,-82.0631,12.39,1111122 
SCCF RECON,ioos:station:SCCF:11:1,2016-06-07T21:00:00Z,26.4679,-82.0631,10.63,1111122 
SCCF RECON,ioos:station:SCCF:11:1,2016-06-07T22:00:00Z,26.4679,-82.0631,11.97,1111122 
SCCF RECON,ioos:station:SCCF:11:1,2016-06-07T23:00:00Z,26.4679,-82.0631,8.73,1111122 
SCCF RECON,ioos:station:SCCF:11:1,2016-06-08T00:00:00Z,26.4679,-82.0631,7.99,1111122 
SCCF RECON,ioos:station:SCCF:11:1,2016-06-08T01:00:00Z,26.4679,-82.0631,8.81,1111122 
SCCF RECON,ioos:station:SCCF:11:1,2016-06-08T02:00:00Z,26.4679,-82.0631,7.57,1111122 
SCCF RECON,ioos:station:SCCF:11:1,2016-06-08T03:00:00Z,26.4679,-82.0631,6.98,1111122 
SCCF RECON,ioos:station:SCCF:11:1,2016-06-08T04:00:00Z,26.4679,-82.0631,8.64,1111122 
SCCF RECON,ioos:station:SCCF:11:1,2016-06-08T05:00:00Z,26.4679,-82.0631,22.95,1111122 
SCCF RECON,ioos:station:SCCF:11:1,2016-06-08T06:00:00Z,26.4679,-82.0631,12.16,1111122 
SCCF RECON,ioos:station:SCCF:11:1,2016-06-08T07:00:00Z,26.4679,-82.0631,10.79,1111122 
SCCF RECON,ioos:station:SCCF:11:1,2016-06-08T08:00:00Z,26.4679,-82.0631,9.09,1111122 
SCCF RECON,ioos:station:SCCF:11:1,2016-06-08T09:00:00Z,26.4679,-82.0631,9.7,1111122 
SCCF RECON,ioos:station:SCCF:11:1,2016-06-08T10:00:00Z,26.4679,-82.0631,10.09,1111122 
SCCF RECON,ioos:station:SCCF:11:1,2016-06-08T11:00:00Z,26.4679,-82.0631,6.09,1111122 
SCCF RECON,ioos:station:SCCF:11:1,2016-06-08T12:00:00Z,26.4679,-82.0631,6.5,1111122 
SCCF RECON,ioos:station:SCCF:11:1,2016-06-08T13:00:00Z,26.4679,-82.0631,5.91,1111122 
SCCF RECON,ioos:station:SCCF:11:1,2016-06-08T14:00:00Z,26.4679,-82.0631,4.65,1111122 
SCCF RECON,ioos:station:SCCF:11:1,2016-06-08T15:00:00Z,26.4679,-82.0631,4.76,1111122 
SCCF RECON,ioos:station:SCCF:11:1,2016-06-08T16:00:00Z,26.4679,-82.0631,6.38,1111122 
SCCF RECON,ioos:station:SCCF:11:1,2016-06-08T17:00:00Z,26.4679,-82.0631,6.17,1111122 
SCCF RECON,ioos:station:SCCF:11:1,2016-06-08T18:00:00Z,26.4679,-82.0631,5.96,1111122 
SCCF RECON,ioos:station:SCCF:11:1,2016-06-08T19:00:00Z,26.4679,-82.0631,9.57,1111122 
SCCF RECON,ioos:station:SCCF:11:1,2016-06-08T20:00:00Z,26.4679,-82.0631,7.6,1111122 
SCCF RECON,ioos:station:SCCF:11:1,2016-06-08T21:00:00Z,26.4679,-82.0631,5.11,1111122 
SCCF RECON,ioos:station:SCCF:11:1,2016-06-08T22:00:00Z,26.4679,-82.0631,6.19,1111122 
SCCF RECON,ioos:station:SCCF:11:1,2016-06-08T23:00:00Z,26.4679,-82.0631,6.74,1111122 
SCCF RECON,ioos:station:SCCF:11:1,2016-06-09T00:00:00Z,26.4679,-82.0631,7.41,1111122 
SCCF RECON,ioos:station:SCCF:11:1,2016-06-09T01:00:00Z,26.4679,-82.0631,7.15,1111122 
SCCF RECON,ioos:station:SCCF:11:1,2016-06-09T02:00:00Z,26.4679,-82.0631,6.79,1111122 
SCCF RECON,ioos:station:SCCF:11:1,2016-06-09T03:00:00Z,26.4679,-82.0631,7.17,1111122 
SCCF RECON,ioos:station:SCCF:11:1,2016-06-09T04:00:00Z,26.4679,-82.0631,7.26,1111122 
SCCF RECON,ioos:station:SCCF:11:1,2016-06-09T05:00:00Z,26.4679,-82.0631,16.04,1111122 
SCCF RECON,ioos:station:SCCF:11:1,2016-06-09T06:00:00Z,26.4679,-82.0631,13.46,1111122 
SCCF RECON,ioos:station:SCCF:11:1,2016-06-09T07:00:00Z,26.4679,-82.0631,16.71,1111122 
SCCF RECON,ioos:station:SCCF:11:1,2016-06-09T08:00:00Z,26.4679,-82.0631,8.95,1111122 
SCCF RECON,ioos:station:SCCF:11:1,2016-06-09T09:00:00Z,26.4679,-82.0631,13.82,1111122 
SCCF RECON,ioos:station:SCCF:11:1,2016-06-09T10:00:00Z,26.4679,-82.0631,16.46,1111122 
SCCF RECON,ioos:station:SCCF:11:1,2016-06-09T11:00:00Z,26.4679,-82.0631,13.71,1111122 
SCCF RECON,ioos:station:SCCF:11:1,2016-06-09T12:00:00Z,26.4679,-82.0631,7.58,1111122 
SCCF RECON,ioos:station:SCCF:11:1,2016-06-09T13:00:00Z,26.4679,-82.0631,8.63,1111122 
SCCF RECON,ioos:station:SCCF:11:1,2016-06-09T14:00:00Z,26.4679,-82.0631,6.37,1111122 
SCCF RECON,ioos:station:SCCF:11:1,2016-06-09T15:00:00Z,26.4679,-82.0631,5.69,1111122 
SCCF RECON,ioos:station:SCCF:11:1,2016-06-09T16:00:00Z,26.4679,-82.0631,5.64,1111122 
SCCF RECON,ioos:station:SCCF:11:1,2016-06-09T17:00:00Z,26.4679,-82.0631,5.23,1111122 
SCCF RECON,ioos:station:SCCF:11:1,2016-06-09T18:00:00Z,26.4679,-82.0631,6.59,1111122 
SCCF RECON,ioos:station:SCCF:11:1,2016-06-09T19:00:00Z,26.4679,-82.0631,6.41,1111122 
SCCF RECON,ioos:station:SCCF:11:1,2016-06-09T20:00:00Z,26.4679,-82.0631,6.21,1111122 
SCCF RECON,ioos:station:SCCF:11:1,2016-06-09T21:00:00Z,26.4679,-82.0631,7.19,1111122 
SCCF RECON,ioos:station:SCCF:11:1,2016-06-09T22:00:00Z,26.4679,-82.0631,7.72,1111122 
SCCF RECON,ioos:station:SCCF:11:1,2016-06-09T23:00:00Z,26.4679,-82.0631,6.25,1111122 
SCCF RECON,ioos:station:SCCF:11:1,2016-06-10T00:00:00Z,26.4679,-82.0631,7.16,1111122 
SCCF RECON,ioos:station:SCCF:11:1,2016-06-10T01:00:00Z,26.4679,-82.0631,8.17,1111122 
SCCF RECON,ioos:station:SCCF:11:1,2016-06-10T02:00:00Z,26.4679,-82.0631,7.44,1111122 
SCCF RECON,ioos:station:SCCF:11:1,2016-06-10T03:00:00Z,26.4679,-82.0631,7.55,1111122 
SCCF RECON,ioos:station:SCCF:11:1,2016-06-10T04:00:00Z,26.4679,-82.0631,6.15,1111122 
SCCF RECON,ioos:station:SCCF:11:1,2016-06-10T05:00:00Z,26.4679,-82.0631,6.73,1111122 
SCCF RECON,ioos:station:SCCF:11:1,2016-06-10T06:00:00Z,26.4679,-82.0631,15.68,1111122 
SCCF RECON,ioos:station:SCCF:11:1,2016-06-10T07:00:00Z,26.4679,-82.0631,11.72,1111122 
SCCF RECON,ioos:station:SCCF:11:1,2016-06-10T08:00:00Z,26.4679,-82.0631,7.85,1111122 
SCCF RECON,ioos:station:SCCF:11:1,2016-06-10T09:00:00Z,26.4679,-82.0631,9.69,1111122 
SCCF RECON,ioos:station:SCCF:11:1,2016-06-10T10:00:00Z,26.4679,-82.0631,8.26,1111122 
SCCF RECON,ioos:station:SCCF:11:1,2016-06-10T11:00:00Z,26.4679,-82.0631,10.3,1111122 
SCCF RECON,ioos:station:SCCF:11:1,2016-06-10T12:00:00Z,26.4679,-82.0631,9.17,1111122 
SCCF RECON,ioos:station:SCCF:11:1,2016-06-10T13:00:00Z,26.4679,-82.0631,5.7,1111122 
SCCF RECON,ioos:station:SCCF:11:1,2016-06-10T14:00:00Z,26.4679,-82.0631,5.14,1111122 
SCCF RECON,ioos:station:SCCF:11:1,2016-06-10T15:00:00Z,26.4679,-82.0631,4.87,1111122 
SCCF RECON,ioos:station:SCCF:11:1,2016-06-10T16:00:00Z,26.4679,-82.0631,4.63,1111122 
SCCF RECON,ioos:station:SCCF:11:1,2016-06-10T17:00:00Z,26.4679,-82.0631,6.07,1111122 
SCCF RECON,ioos:station:SCCF:11:1,2016-06-10T18:00:00Z,26.4679,-82.0631,5.27,1111122 
SCCF RECON,ioos:station:SCCF:11:1,2016-06-10T19:00:00Z,26.4679,-82.0631,5.9,1111122 
SCCF RECON,ioos:station:SCCF:11:1,2016-06-10T20:00:00Z,26.4679,-82.0631,5.43,1111122 
SCCF RECON,ioos:station:SCCF:11:1,2016-06-10T21:00:00Z,26.4679,-82.0631,6.03,1111122 
SCCF RECON,ioos:station:SCCF:11:1,2016-06-10T22:00:00Z,26.4679,-82.0631,6.51,1111122 
SCCF RECON,ioos:station:SCCF:11:1,2016-06-10T23:00:00Z,26.4679,-82.0631,5.53,1111122 
SCCF RECON,ioos:station:SCCF:11:1,2016-06-11T00:00:00Z,26.4679,-82.0631,5.44,1111122 
SCCF RECON,ioos:station:SCCF:11:1,2016-06-11T01:00:00Z,26.4679,-82.0631,5.26,1111122 
SCCF RECON,ioos:station:SCCF:11:1,2016-06-11T02:00:00Z,26.4679,-82.0631,6.2,1111122 
SCCF RECON,ioos:station:SCCF:11:1,2016-06-11T03:00:00Z,26.4679,-82.0631,6.95,1111122 
SCCF RECON,ioos:station:SCCF:11:1,2016-06-11T04:00:00Z,26.4679,-82.0631,5.79,1111122 
SCCF RECON,ioos:station:SCCF:11:1,2016-06-11T05:00:00Z,26.4679,-82.0631,5.32,1111122 
SCCF RECON,ioos:station:SCCF:11:1,2016-06-11T06:00:00Z,26.4679,-82.0631,5.35,1111122 
SCCF RECON,ioos:station:SCCF:11:1,2016-06-11T07:00:00Z,26.4679,-82.0631,6.25,1111122 
SCCF RECON,ioos:station:SCCF:11:1,2016-06-11T08:00:00Z,26.4679,-82.0631,6.65,1111122 
SCCF RECON,ioos:station:SCCF:11:1,2016-06-11T09:00:00Z,26.4679,-82.0631,6.34,1111122 
SCCF RECON,ioos:station:SCCF:11:1,2016-06-11T10:00:00Z,26.4679,-82.0631,7.1,1111122 
SCCF RECON,ioos:station:SCCF:11:1,2016-06-11T11:00:00Z,26.4679,-82.0631,6.44,1111122 
SCCF RECON,ioos:station:SCCF:11:1,2016-06-11T12:00:00Z,26.4679,-82.0631,6.72,1111122 
SCCF RECON,ioos:station:SCCF:11:1,2016-06-11T13:00:00Z,26.4679,-82.0631,5.54,1111122 
SCCF RECON,ioos:station:SCCF:11:1,2016-06-11T14:00:00Z,26.4679,-82.0631,5.24,1111122 
SCCF RECON,ioos:station:SCCF:11:1,2016-06-11T15:00:00Z,26.4679,-82.0631,4.75,1111122 
SCCF RECON,ioos:station:SCCF:11:1,2016-06-11T16:00:00Z,26.4679,-82.0631,4.82,1111122 
SCCF RECON,ioos:station:SCCF:11:1,2016-06-11T17:00:00Z,26.4679,-82.0631,5.49,1111122 
SCCF RECON,ioos:station:SCCF:11:1,2016-06-11T18:00:00Z,26.4679,-82.0631,4.75,1111122 
SCCF RECON,ioos:station:SCCF:11:1,2016-06-11T19:00:00Z,26.4679,-82.0631,8.52,1111122 
SCCF RECON,ioos:station:SCCF:11:1,2016-06-11T20:00:00Z,26.4679,-82.0631,5.2,1111122 
SCCF RECON,ioos:station:SCCF:11:1,2016-06-11T21:00:00Z,26.4679,-82.0631,4.17,1111122 
SCCF RECON,ioos:station:SCCF:11:1,2016-06-11T22:00:00Z,26.4679,-82.0631,4.54,1111122 
SCCF RECON,ioos:station:SCCF:11:1,2016-06-11T23:00:00Z,26.4679,-82.0631,4.74,1111122 
SCCF RECON,ioos:station:SCCF:11:1,2016-06-12T00:00:00Z,26.4679,-82.0631,5.34,1111122 
SCCF RECON,ioos:station:SCCF:11:1,2016-06-12T01:00:00Z,26.4679,-82.0631,4.96,1111122 
SCCF RECON,ioos:station:SCCF:11:1,2016-06-12T02:00:00Z,26.4679,-82.0631,4.96,1111122 
SCCF RECON,ioos:station:SCCF:11:1,2016-06-12T03:00:00Z,26.4679,-82.0631,4.29,1111122 
SCCF RECON,ioos:station:SCCF:11:1,2016-06-12T04:00:00Z,26.4679,-82.0631,4.01,1111122 
SCCF RECON,ioos:station:SCCF:11:1,2016-06-12T05:00:00Z,26.4679,-82.0631,4.15,1111122 
SCCF RECON,ioos:station:SCCF:11:1,2016-06-12T06:00:00Z,26.4679,-82.0631,4.67,1111122 
SCCF RECON,ioos:station:SCCF:11:1,2016-06-12T07:00:00Z,26.4679,-82.0631,5.09,1111122 
SCCF RECON,ioos:station:SCCF:11:1,2016-06-12T08:00:00Z,26.4679,-82.0631,4.36,1111122 
SCCF RECON,ioos:station:SCCF:11:1,2016-06-12T09:00:00Z,26.4679,-82.0631,5.92,1111122 
SCCF RECON,ioos:station:SCCF:11:1,2016-06-12T10:00:00Z,26.4679,-82.0631,7.5,1111122 
SCCF RECON,ioos:station:SCCF:11:1,2016-06-12T11:00:00Z,26.4679,-82.0631,7.4,1111122 
SCCF RECON,ioos:station:SCCF:11:1,2016-06-12T12:00:00Z,26.4679,-82.0631,5.14,1111122 
SCCF RECON,ioos:station:SCCF:11:1,2016-06-12T13:00:00Z,26.4679,-82.0631,6.39,1111122 